Weather History for KCRQ - November, 2011

Change the Weather History Date:

Wednesday, November 2, 2011

  Actual Average Record
Temperature  
Mean Temperature 68 °F -  
Max Temperature 84 °F 64 °F 87 °F (2010)
Min Temperature 51 °F 51 °F 46 °F (1999)
Cooling Degree Days 2    
Growing Degree Days 18 (Base 50)    
Moisture  
Dew Point 39 °F    
Average Humidity 47    
Maximum Humidity 89    
Minimum Humidity 8    
Precipitation  
Precipitation 0.01 in - - ()
Sea Level Pressure  
Sea Level Pressure 30.02 in    
Wind  
Wind Speed 2 mph (WSW)    
Max Wind Speed 9 mph    
Max Gust Speed -    
Visibility 9 miles    
Events      
Averages and records for this station are not official NWS values.
T = Trace of Precipitation, MM = Missing Value Source: NWS Daily Summary

Daily Weather History Graph

Daily Weather History Graph

Search for Another Location

Airport or City:

Trip Planner

Search our weather history database for the weather conditions in past years. The results will help you decide how hot, cold, wet, or windy it might be!

Date:

Astronomy

Nov. 02, 2011 Rise Set
Actual Time 7:08 AM PDT 5:56 PM PDT
Civil Twilight 6:42 AM PDT 6:22 PM PDT
Nautical Twilight 6:13 AM PDT 6:51 PM PDT
Astronomical Twilight 5:44 AM PDT 7:20 PM PDT
Moon 1:30 PM PDT (11/2) No Moon Set
Length of Visible Light 11h 40m
Length of Day
10h 48m
Waxing Crescent, 51% of the Moon is Illuminated
Nov 2
Waxing Crescent
Nov 10
Full
Nov 18
Last Quarter
Nov 24
New
Dec 2
First Quarter

Hourly Weather History & Observations

Time (PDT) Temp. Dew Point Humidity Pressure Visibility Wind Dir Wind Speed Gust Speed Precip Events Conditions
12:53 AM 55.0 °F 51.1 °F 86% 29.97 in 6.0 mi Calm Calm - N/A   Clear
1:53 AM 54.0 °F 50.0 °F 86% 29.98 in 5.0 mi Calm Calm - N/A   Clear
2:53 AM 52.0 °F 48.9 °F 89% 29.98 in 5.0 mi Calm Calm - 0.01 in   Clear
3:53 AM 52.0 °F 48.9 °F 89% 29.98 in 4.0 mi Calm Calm - N/A   Clear
4:53 AM 51.1 °F 48.0 °F 89% 29.99 in 5.0 mi East 3.5 mph - N/A   Clear
5:53 AM 53.1 °F 46.9 °F 80% 30.00 in 7.0 mi Calm Calm - N/A   Clear
6:53 AM 57.0 °F 39.0 °F 51% 30.01 in 10.0 mi NE 3.5 mph - N/A   Clear
7:53 AM 59.0 °F 33.8 °F 39% 30.03 in 10.0 mi NNE 4.6 mph - N/A   Clear
8:53 AM 68.0 °F 27.0 °F 21% 30.05 in 10.0 mi Calm Calm - N/A   Clear
9:53 AM 73.0 °F 23.0 °F 15% 30.06 in 10.0 mi Variable 4.6 mph - N/A   Clear
10:53 AM 78.1 °F 21.0 °F 12% 30.06 in 10.0 mi Variable 3.5 mph - N/A   Clear
11:53 AM 81.0 °F 18.0 °F 10% 30.05 in 10.0 mi Calm Calm - N/A   Clear
12:53 PM 84.0 °F 17.1 °F 8% 30.03 in 10.0 mi SSE 3.5 mph - N/A   Clear
1:53 PM 80.1 °F 45.0 °F 29% 30.01 in 10.0 mi West 6.9 mph - N/A   Clear
2:53 PM 75.0 °F 52.0 °F 44% 30.00 in 10.0 mi West 9.2 mph - N/A   Clear
3:53 PM 72.0 °F 43.0 °F 35% 29.99 in 10.0 mi West 5.8 mph - N/A   Clear
4:53 PM 72.0 °F 44.1 °F 37% 29.99 in 10.0 mi WSW 3.5 mph - N/A   Clear
5:53 PM 68.0 °F 45.0 °F 43% 30.00 in 10.0 mi West 3.5 mph - N/A   Clear
6:53 PM 66.0 °F 41.0 °F 40% 30.02 in 10.0 mi Calm Calm - N/A   Clear
7:53 PM 64.9 °F 36.0 °F 34% 30.02 in 10.0 mi Calm Calm - N/A   Clear
8:53 PM 63.0 °F 42.1 °F 46% 30.04 in 10.0 mi SSE 5.8 mph - N/A   Clear
9:53 PM 60.1 °F 44.1 °F 55% 30.04 in 10.0 mi Calm Calm - N/A   Clear
10:53 PM 57.9 °F 35.1 °F 42% 30.04 in 10.0 mi Calm Calm - N/A   Clear
11:53 PM 55.9 °F 33.1 °F 42% 30.04 in 10.0 mi Calm Calm - N/A   Clear